Stephenville, TX

3:25 PM CST on February 23, 2017 (GMT -0600)
Clark Municipal

Weather History for KSEP - March, 2013

Change the Weather History Date:

Sunday, March 10, 2013

  Actual Average Record
Temperature  
Mean Temperature 49 °F -  
Max Temperature 59 °F 68 °F 95 °F (1954)
Min Temperature 39 °F 43 °F 18 °F (1948)
Degree Days  
Heating Degree Days 16    
Moisture  
Dew Point 33 °F    
Average Humidity 53    
Maximum Humidity 88    
Minimum Humidity 38    
Precipitation  
Precipitation 0.00 in - - ()
Sea Level Pressure  
Sea Level Pressure 29.98 in    
Wind  
Wind Speed 12 mph (NW)    
Max Wind Speed 30 mph    
Max Gust Speed 39 mph    
Visibility 10 miles    
Events      
Averages and records for this station are not official NWS values.
T = Trace of Precipitation, MM = Missing Value Source: NWS Daily Summary

Daily Weather History Graph

Daily Weather History Graph

Search for Another Location

Airport or City:

Trip Planner

Search our weather history database for the weather conditions in past years. The results will help you decide how hot, cold, wet, or windy it might be!

Date:

Astronomy

Mar. 10, 2013 Rise Set
Actual Time 7:48 AM CDT 7:37 PM CDT
Civil Twilight 7:24 AM CDT 8:01 PM CDT
Nautical Twilight 6:56 AM CDT 8:30 PM CDT
Astronomical Twilight 6:27 AM CDT 8:58 PM CDT
Moon 6:47 AM CDT (3/10) 6:47 PM CDT (3/10)
Length of Visible Light 12h 37m
Length of Day
11h 48m
Waning Crescent, 2% of the Moon is Illuminated
Mar 10
Waning Crescent
Mar 11
New
Mar 19
First Quarter
Mar 27
Full
Apr 2
Last Quarter

Hourly Weather History & Observations

Time (CDT) Temp. Windchill Dew Point Humidity Pressure Visibility Wind Dir Wind Speed Gust Speed Precip Events Conditions
12:15 AM 57.2 °F - 53.6 °F 88% 29.82 in 10.0 mi West 6.9 mph - N/A   Overcast
12:35 AM 59.0 °F - 53.6 °F 82% 29.82 in 10.0 mi West 6.9 mph - N/A   Mostly Cloudy
12:55 AM 59.0 °F - 46.4 °F 63% 29.80 in 10.0 mi NW 11.5 mph 16.1 mph N/A   Overcast
1:15 AM 59.0 °F - 42.8 °F 55% 29.84 in 10.0 mi NW 9.2 mph 18.4 mph N/A   Overcast
1:35 AM 59.0 °F - 41.0 °F 51% 29.86 in 10.0 mi WNW 11.5 mph - N/A   Overcast
1:55 AM 57.2 °F - 37.4 °F 48% 29.85 in 10.0 mi WNW 12.7 mph 19.6 mph N/A   Scattered Clouds
3:15 AM 57.2 °F - 37.4 °F 48% 29.83 in 10.0 mi WNW 10.4 mph 25.3 mph N/A   Mostly Cloudy
3:35 AM 57.2 °F - 35.6 °F 44% 29.85 in 10.0 mi WNW 12.7 mph 18.4 mph N/A   Overcast
3:55 AM 55.4 °F - 37.4 °F 51% 29.84 in 10.0 mi NW 12.7 mph 17.3 mph N/A   Overcast
4:15 AM 53.6 °F - 39.2 °F 58% 29.85 in 10.0 mi WNW 4.6 mph - N/A   Overcast
4:35 AM 53.6 °F - 41.0 °F 62% 29.89 in 10.0 mi SW 6.9 mph - N/A   Overcast
4:55 AM 53.6 °F - 41.0 °F 62% 29.83 in 10.0 mi Calm Calm - N/A   Overcast
5:15 AM 51.8 °F - 41.0 °F 67% 29.82 in 10.0 mi Calm Calm - N/A   Overcast
5:35 AM 51.8 °F - 42.8 °F 71% 29.80 in 10.0 mi Calm Calm - N/A   Overcast
5:55 AM 53.6 °F - 42.8 °F 67% 29.80 in 10.0 mi Calm Calm - N/A   Overcast
6:15 AM 51.8 °F - 42.8 °F 71% 29.81 in 10.0 mi Calm Calm - N/A   Overcast
6:35 AM 51.8 °F - 35.6 °F 54% 29.83 in 10.0 mi NW 15.0 mph 35.7 mph N/A   Mostly Cloudy
6:55 AM 50.0 °F - 35.6 °F 58% 29.85 in 10.0 mi NW 16.1 mph 21.9 mph N/A   Scattered Clouds
7:15 AM 50.0 °F - 33.8 °F 54% 29.86 in 10.0 mi WNW 17.3 mph 26.5 mph N/A   Scattered Clouds
7:35 AM 50.0 °F - 33.8 °F 54% 29.87 in 10.0 mi NW 20.7 mph 26.5 mph N/A   Mostly Cloudy
7:55 AM 48.2 °F - 32.0 °F 54% 29.89 in 10.0 mi WNW 13.8 mph 25.3 mph N/A   Overcast
8:15 AM 46.4 °F 39.5 °F 32.0 °F 57% 29.89 in 10.0 mi NW 17.3 mph 27.6 mph N/A   Scattered Clouds
8:35 AM 46.4 °F 39.8 °F 32.0 °F 57% 29.91 in 10.0 mi WNW 16.1 mph 25.3 mph N/A   Clear
8:55 AM 46.4 °F 40.4 °F 32.0 °F 57% 29.93 in 10.0 mi WNW 13.8 mph 28.8 mph N/A   Clear
9:15 AM 46.4 °F 38.7 °F 32.0 °F 57% 29.94 in 10.0 mi NW 20.7 mph 27.6 mph N/A   Clear
9:35 AM 46.4 °F 38.5 °F 30.2 °F 53% 29.94 in 10.0 mi NW 21.9 mph 32.2 mph N/A   Clear
9:55 AM 46.4 °F 38.1 °F 30.2 °F 53% 29.96 in 10.0 mi NW 24.2 mph 34.5 mph N/A   Clear
10:15 AM 48.2 °F - 30.2 °F 50% 29.97 in 10.0 mi NW 25.3 mph 34.5 mph N/A   Clear
10:35 AM 48.2 °F - 30.2 °F 50% 29.99 in 10.0 mi NW 24.2 mph 33.4 mph N/A   Clear
10:55 AM 48.2 °F - 30.2 °F 50% 29.99 in 10.0 mi NW 21.9 mph 33.4 mph N/A   Clear
11:15 AM 48.2 °F - 30.2 °F 50% 30.01 in 10.0 mi NNW 29.9 mph 39.1 mph N/A   Clear
11:35 AM 50.0 °F - 32.0 °F 50% 30.02 in 10.0 mi NW 23.0 mph 31.1 mph N/A   Scattered Clouds
11:55 AM 48.2 °F - 30.2 °F 50% 30.03 in 10.0 mi NNW 25.3 mph 33.4 mph N/A   Mostly Cloudy
12:15 PM 48.2 °F - 30.2 °F 50% 30.03 in 10.0 mi NNW 25.3 mph 33.4 mph N/A   Mostly Cloudy
12:35 PM 48.2 °F - 30.2 °F 50% 30.05 in 10.0 mi NW 24.2 mph 35.7 mph N/A   Overcast
12:55 PM 48.2 °F - 30.2 °F 50% 30.04 in 10.0 mi NW 24.2 mph 33.4 mph N/A   Mostly Cloudy
1:15 PM 50.0 °F - 32.0 °F 50% 30.05 in 10.0 mi NNW 23.0 mph 31.1 mph N/A   Mostly Cloudy
1:35 PM 50.0 °F - 32.0 °F 50% 30.03 in 10.0 mi NW 21.9 mph 32.2 mph N/A   Scattered Clouds
1:55 PM 51.8 °F - 32.0 °F 47% 30.02 in 10.0 mi NW 23.0 mph 29.9 mph N/A   Scattered Clouds
2:15 PM 51.8 °F - 30.2 °F 44% 30.01 in 10.0 mi WNW 21.9 mph 34.5 mph N/A   Scattered Clouds
2:35 PM 51.8 °F - 30.2 °F 44% 30.01 in 10.0 mi NW 18.4 mph 31.1 mph N/A   Clear
2:55 PM 53.6 °F - 30.2 °F 41% 30.00 in 10.0 mi NNW 19.6 mph 28.8 mph N/A   Clear
3:15 PM 53.6 °F - 30.2 °F 41% 30.00 in 10.0 mi NW 15.0 mph 28.8 mph N/A   Clear
3:35 PM 53.6 °F - 30.2 °F 41% 30.00 in 10.0 mi NW 23.0 mph 31.1 mph N/A   Clear
3:55 PM 53.6 °F - 28.4 °F 38% 30.01 in 10.0 mi NW 24.2 mph 31.1 mph N/A   Clear
4:15 PM 53.6 °F - 28.4 °F 38% 30.00 in 10.0 mi NW 21.9 mph 32.2 mph N/A   Clear
4:35 PM 53.6 °F - 28.4 °F 38% 30.00 in 10.0 mi NNW 20.7 mph 27.6 mph N/A   Clear
4:55 PM 53.6 °F - 28.4 °F 38% 29.99 in 10.0 mi NNW 19.6 mph 27.6 mph N/A   Clear
5:15 PM 53.6 °F - 28.4 °F 38% 30.00 in 10.0 mi North 21.9 mph 28.8 mph N/A   Clear
5:35 PM 53.6 °F - 28.4 °F 38% 30.01 in 10.0 mi NNW 20.7 mph 26.5 mph N/A   Clear
5:55 PM 51.8 °F - 28.4 °F 41% 30.02 in 10.0 mi NNW 17.3 mph 25.3 mph N/A   Clear
6:15 PM 51.8 °F - 28.4 °F 41% 30.02 in 10.0 mi NW 19.6 mph 23.0 mph N/A   Clear
6:35 PM 51.8 °F - 26.6 °F 38% 30.03 in 10.0 mi NNW 21.9 mph 27.6 mph N/A   Clear
6:55 PM 51.8 °F - 28.4 °F 41% 30.04 in 10.0 mi NNW 18.4 mph 24.2 mph N/A   Clear
7:15 PM 50.0 °F - 28.4 °F 43% 30.05 in 10.0 mi NNW 12.7 mph - N/A   Clear
7:35 PM 48.2 °F - 28.4 °F 46% 30.06 in 10.0 mi NNW 9.2 mph - N/A   Clear
7:55 PM 46.4 °F 42.9 °F 28.4 °F 50% 30.07 in 10.0 mi NNW 6.9 mph - N/A   Clear
8:15 PM 46.4 °F 44.3 °F 28.4 °F 50% 30.08 in 10.0 mi NNW 4.6 mph - N/A   Clear
8:35 PM 44.6 °F 43.1 °F 30.2 °F 57% 30.09 in 10.0 mi NNW 3.5 mph - N/A   Clear
8:55 PM 44.6 °F - 28.4 °F 53% 30.10 in 10.0 mi Calm Calm - N/A   Clear
9:15 PM 44.6 °F - 28.4 °F 53% 30.11 in 10.0 mi Calm Calm - N/A   Clear
9:35 PM 44.6 °F - 28.4 °F 53% 30.12 in 10.0 mi Calm Calm - N/A   Clear
9:55 PM 42.8 °F - 28.4 °F 57% 30.13 in 10.0 mi Calm Calm - N/A   Clear
10:15 PM 42.8 °F - 30.2 °F 61% 30.13 in 10.0 mi Calm Calm - N/A   Clear
10:35 PM 41.0 °F - 30.2 °F 65% 30.12 in 10.0 mi Calm Calm - N/A   Clear
10:55 PM 41.0 °F 39.0 °F 30.2 °F 65% 30.12 in 10.0 mi NW 3.5 mph - N/A   Clear
11:15 PM 41.0 °F 38.0 °F 30.2 °F 65% 30.11 in 10.0 mi NNW 4.6 mph - N/A   Clear
11:35 PM 39.2 °F 35.0 °F 28.4 °F 65% 30.11 in 10.0 mi NW 5.8 mph - N/A   Clear
11:55 PM 41.0 °F 37.1 °F 28.4 °F 61% 30.10 in 10.0 mi NW 5.8 mph - N/A   Clear
12:15 AM 41.0 °F 38.0 °F 26.6 °F 57% 30.10 in 10.0 mi NW 4.6 mph - N/A   Clear
12:35 AM 39.2 °F 35.0 °F 26.6 °F 61% 30.10 in 10.0 mi NW 5.8 mph - N/A   Clear
12:55 AM 39.2 °F 35.0 °F 26.6 °F 61% 30.11 in 10.0 mi NW 5.8 mph - N/A   Clear